Simultaneous Nadir Overpasses (SNOs) Predictions

Prediction of SNOs between AQUA and METOP-A Satellite Orbit:

Table of predicted SNOs for the next 14.0 days since TLE Epoch: 6/8/2017
Index Date (AQUA) Time (AQUA) Lat,Lon (AQUA) SZA (AQUA ) Date (METOP-A) Time (METOP-A) Lat,Lon (METOP-A) SZA (METOP-A ) Distance(km) Time Diff (sec)
1 06/09/2017 01:36:20 73.45, 150.92 50.49 06/09/2017 01:35:12 73.39, 148.99 50.51 61.69 68
2 06/09/2017 02:25:54 -73.91, -42.44 129.02 06/09/2017 02:25:43 -73.91, -42.48 129.02 1.37 11
3 06/09/2017 03:15:23 73.97, 125.08 51.04 06/09/2017 03:16:22 73.96, 125.00 51.03 2.48 59
4 06/11/2017 21:10:38 73.71,-143.19 50.57 06/11/2017 21:09:26 73.68,-143.93 50.58 23.17 72
5 06/11/2017 22:00:07 -73.91, 24.02 129.23 06/11/2017 22:00:03 -73.90, 23.92 129.23 2.86 4
6 06/11/2017 22:49:37 74.02,-168.60 50.89 06/11/2017 22:50:41 74.01,-168.49 50.87 3.57 64
7 06/14/2017 16:44:55 73.87, -77.11 50.59 06/14/2017 16:43:43 73.87, -77.07 50.61 1.13 72
8 06/14/2017 17:34:22 -73.96, 90.34 129.32 06/14/2017 17:34:23 -73.95, 90.44 129.33 3.17 1
9 06/14/2017 18:23:50 73.97,-102.06 50.70 06/14/2017 18:25:02 74.00,-102.11 50.72 3.16 72
10 06/17/2017 12:19:09 73.88, -10.69 50.51 06/17/2017 12:18:04 73.86, -10.69 50.50 2.64 65
11 06/17/2017 13:08:36 -73.96, 156.77 129.40 06/17/2017 13:08:44 -73.94, 156.82 129.43 3.20 8
12 06/17/2017 13:58:08 74.19, -36.12 50.85 06/17/2017 13:59:19 74.18, -35.24 50.80 26.60 71
13 06/20/2017 07:53:22 73.90, 55.71 50.50 06/20/2017 07:52:23 73.90, 55.80 50.50 2.99 59
14 06/20/2017 08:42:48 -73.92,-136.70 129.49 06/20/2017 08:43:04 -73.93,-136.79 129.48 3.11 16




NCC Satellite Simultaneous Nadir Overpasses (SNOs) Prediction Service
